Powrót do katalogu

ONEWEB-0169

AktywnyŁącznośćPO
NORAD 48077·PAYLOAD·🇬🇧 United Kingdom

Wystrzelony Mar 25, 2021 z Vostochny Cosmodrome

Loading…

Następne Przeloty (najbliższe 24 godziny)

TLE

ŚwieżeSource: CelesTrak SupGP

Epoka: Sep 14, 2026, 15:18 UTC

1 48077C 21025AM  26257.63767778 -.00000525  00000+0 -14397-2 0  2575
2 48077  87.8922 302.4300 0001865 100.4664 359.0015 13.13469049    11

Śledź ONEWEB-0169 w czasie rzeczywistym z AllMySat

Download on the App Store